Terug naar catalogus

ONEWEB-0028

ActiefCommunicatiePO
NORAD 45140·PAYLOAD·🇬🇧 United Kingdom

Gelanceerd Feb 6, 2020 vanaf Baikonur Cosmodrome

Loading…

Volgende Passages (komende 24 uur)

TLE

VersSource: CelesTrak SupGP

Epoch: Sep 14, 2026, 15:38 UTC

1 45140C 20008K   26257.65157824  .00001853  00000+0  52356-2 0  2570
2 45140  87.8962   3.2845 0002334 107.3891 358.8256 13.11411014    14

Volg ONEWEB-0028 in realtime met AllMySat

Download on the App Store